SCP
0 0 0 0 0 0 0 0 0 0 0 0 0 0 0 1 2 3 5 6 7 9 12 13 14 14 15 16 16 17 18 19 17 13 10 10 11 10 11 12 13 13 10 8
0 0 0 0 0 0 0 0 0 0 0 0 0 0 0 1 3 4 5 6 9 12 13 14 14 15 16 16 16 18 20 20 18 14 11 10 10 10 10 11 12 11 9 7
0 0 0 0 0 0 0 0 0 0 0 0 0 0 1 2 4 5 6 8 11 15 16 16 16 17 19 20 19 20 21 21 18 14 12 10 11 11 10 10 9 8 6 5
0 0 0 0 0 0 0 0 0 0 0 0 0 0 1 3 6 7 9 11 13 16 18 19 19 20 22 24 23 22 22 21 18 16 13 11 11 10 9 8 6 5 4 3
0 0 0 0 0 0 0 0 0 0 0 0 0 0 1 4 7 10 12 14 14 15 17 17 17 18 20 22 23 22 21 21 21 19 15 12 10 9 7 6 5 4 3 2
0 0 0 0 0 0 0 0 0 0 0 0 0 0 2 5 9 13 15 15 12 11 11 11 10 11 12 14 17 17 18 20 21 19 14 11 9 7 5 4 3 2 1 1
0 0 0 0 0 0 0 0 0 0 0 0 0 1 3 6 10 13 14 12 9 7 6 5 4 4 5 6 8 10 12 15 17 15 11 9 8 5 3 2 2 1 0 0
0 0 0 0 0 0 0 0 0 0 0 0 0 2 4 7 9 10 10 8 5 3 2 2 1 1 1 1 2 3 5 8 10 9 7 6 5 3 2 1 1 0 0 0
0 0 0 0 0 0 0 0 0 0 0 0 1 3 6 7 7 7 6 4 3 1 1 0 0 0 0 0 1 1 1 2 3 3 3 2 2 1 1 0 0 0 0 0
0 0 0 0 0 0 0 0 0 0 0 0 1 3 6 7 6 5 4 3 2 1 1 0 0 0 0 0 0 0 0 0 0 0 0 0 0 0 0 0 0 0 0 0
0 0 0 0 0 0 0 0 0 0 0 0 1 2 4 6 6 5 4 3 1 1 0 0 0 0 0 0 0 0 0 0 0 0 0 0 0 0 0 0 0 0 0 0
0 0 0 0 0 0 0 0 0 0 0 0 1 2 3 5 5 5 4 2 1 0 0 0 0 0 0 0 0 0 0 0 0 0 0 0 0 0 0 0 0 0 0 0
0 0 0 0 0 0 0 0 0 0 0 0 1 2 4 5 4 4 3 1 1 0 0 0 0 0 0 0 0 0 0 0 0 0 0 0 0 0 0 0 0 0 0 0
0 0 0 0 0 0 0 0 0 0 1 1 1 3 4 4 3 2 1 1 0 0 0 0 0 0 0 0 0 0 0 0 0 0 0 0 0 0 0 0 0 0 0 0
0 1 0 0 0 0 0 0 0 1 1 1 2 3 4 4 2 1 1 0 0 0 0 0 0 0 0 0 0 0 0 0 0 0 0 0 0 0 0 0 0 0 0 0
1 1 0 0 0 0 0 1 1 1 1 2 2 3 4 3 2 1 0 0 0 0 0 0 0 0 0 0 0 0 0 0 0 0 0 0 0 0 0 0 0 0 0 0
0 0 0 0 0 0 0 1 1 2 2 2 2 3 3 2 1 1 0 0 0 0 0 0 0 0 0 0 0 0 0 0 0 0 0 0 0 0 0 0 0 0 0 0
0 0 0 0 0 0 1 1 1 2 2 2 2 2 2 1 0 0 0 0 0 0 0 0 0 0 0 0 0 0 0 0 0 0 0 0 0 0 0 0 0 0 0 0
0 0 0 0 0 0 1 1 1 1 1 1 2 1 1 0 0 0 0 0 0 0 0 0 0 0 0 0 0 0 0 0 0 0 0 0 0 0 0 0 0 0 0 0
0 0 0 0 0 0 0 0 0 1 1 1 1 1 1 0 0 0 0 0 0 0 0 0 0 0 0 0 0 0 0 0 0 0 0 0 0 0 0 0 0 0 0 0
0 0 0 0 0 0 0 0 0 0 1 1 1 1 1 0 0 0 0 0 0 0 0 0 0 0 0 0 0 0 0 0 0 0 0 0 0 0 0 0 0 0 0 0
0 0 0 0 0 0 0 0 1 1 1 1 1 1 1 0 0 0 0 0 0 0 0 0 0 0 0 0 0 0 0 0 0 0 0 0 0 0 0 0 0 0 0 0
0 0 0 0 0 0 0 1 1 1 1 1 1 1 0 0 0 0 0 0 0 0 0 0 0 0 0 0 0 0 0 0 0 0 0 0 0 0 0 0 0 0 0 0
0 0 0 0 0 0 1 1 1 1 1 0 0 0 0 0 0 0 0 0 0 0 0 0 0 0 0 0 0 0 0 0 0 0 0 0 0 0 0 0 0 0 0 0
0 0 0 0 0 0 0 1 1 1 1 0 0 0 0 0 0 0 0 0 0 0 0 0 0 0 0 0 0 0 0 0 0 0 0 0 0 0 0 0 0 0 0 0
0 0 0 0 0 0 0 0 1 1 0 0 0 0 0 0 0 0 0 0 0 0 0 0 0 0 0 0 0 0 0 0 0 0 0 0 0 0 0 1 0 0 0 0
Wind_Speed
12 13 14 16 18 19 18 14 15 13 13 16 15 15 14 9 8 7 5 3 2 3 7 9 7 5 11 12 13 12 11 11 10 8 8 6 6 5 4 5 6 6 5 4
13 17 17 17 17 17 17 15 14 9 8 9 10 12 13 10 7 5 2 2 6 11 15 13 11 9 6 8 12 12 11 12 10 7 6 4 5 4 5 5 6 6 5 4
18 14 17 17 15 14 14 14 14 10 7 8 9 13 14 11 7 4 4 8 13 15 15 15 13 12 9 4 6 11 11 11 10 10 7 6 5 5 4 5 5 5 6 5
16 18 13 14 15 13 12 13 14 14 11 9 12 12 15 15 12 7 9 13 15 16 16 16 16 15 14 9 5 6 10 10 10 10 9 10 7 6 5 6 6 8 8 8
14 14 14 13 13 12 12 12 13 13 12 13 13 14 13 13 14 11 14 16 16 16 15 15 15 14 14 13 11 9 9 9 8 7 7 7 7 7 7 8 10 9 8 9
14 12 13 13 12 12 11 12 11 11 11 16 16 15 13 7 11 17 17 16 15 14 14 14 13 14 14 14 14 14 14 12 10 9 8 9 10 10 10 9 9 8 7 7
13 14 13 11 12 12 11 10 8 10 12 15 16 16 5 9 17 21 19 16 15 14 13 12 13 13 13 14 14 14 16 15 14 13 12 11 11 11 11 9 9 8 7 7
11 12 14 13 13 11 13 14 12 10 10 10 14 13 8 18 20 20 19 17 15 14 12 12 11 11 12 13 13 14 16 15 14 14 12 12 12 9 8 10 9 8 7 7
5 7 11 13 13 14 14 15 17 16 17 15 8 8 11 16 17 18 17 17 15 13 12 12 11 11 12 13 13 13 15 15 14 14 14 13 12 11 11 10 9 8 7 7
8 7 8 10 11 14 14 12 8 11 12 14 11 8 11 17 17 16 16 16 14 13 12 11 11 11 12 12 12 13 14 14 13 12 11 12 11 11 10 10 10 9 8 7
7 6 6 8 10 11 12 13 11 10 10 12 12 2 5 15 16 16 15 15 14 13 12 10 10 10 11 11 11 12 13 13 13 12 12 12 11 11 11 10 9 8 7 6
5 6 7 7 8 9 10 10 10 9 10 11 11 3 9 15 17 17 16 15 14 13 12 11 11 11 11 11 12 12 12 13 12 12 12 11 10 10 10 10 8 7 6 5
8 5 7 6 4 6 7 7 9 8 8 9 10 3 10 14 16 15 15 15 13 13 12 11 11 11 11 12 11 11 12 12 12 12 12 11 10 10 9 8 7 6 6 5
5 6 6 5 5 7 9 10 9 9 7 8 7 5 8 10 13 14 13 13 13 12 12 12 11 11 11 11 11 11 11 11 11 11 11 10 9 9 8 8 7 6 5 5
5 8 7 5 6 6 9 8 7 8 10 7 2 6 7 9 12 14 14 13 13 12 12 12 11 11 11 11 11 11 11 10 10 11 10 9 8 8 7 7 6 6 5 6
5 7 10 10 8 8 7 4 4 5 8 7 8 8 10 12 13 12 13 13 13 12 12 12 12 11 10 10 10 9 9 9 9 9 9 8 7 6 6 5 6 6 6 6
7 8 9 9 9 9 3 10 8 9 11 9 9 9 13 13 12 11 11 12 13 13 12 11 10 9 8 8 7 8 8 7 8 8 7 6 5 5 5 6 6 6 5 5
6 7 6 8 7 4 7 10 9 10 15 15 14 14 14 14 13 12 10 12 11 11 10 9 8 8 7 7 7 7 7 7 7 6 5 4 4 5 5 5 5 4 4 3
2 5 6 6 6 3 7 11 12 7 11 12 14 14 16 16 15 11 9 9 10 10 9 8 8 8 7 7 6 6 6 6 5 5 4 4 5 5 5 5 4 3 3 3
1 3 5 7 7 3 5 7 7 2 7 9 11 11 10 7 6 5 7 9 10 9 8 8 8 8 7 6 5 5 5 4 4 4 4 4 4 4 4 4 3 2 2 2
5 4 4 5 3 5 9 11 8 4 4 7 10 9 7 6 8 10 10 10 9 9 8 8 7 7 6 5 5 4 4 4 4 4 4 4 3 2 3 2 2 2 2 2
6 6 6 5 3 4 11 9 8 7 8 9 11 11 14 15 15 12 11 10 9 9 8 7 7 6 5 4 4 4 4 3 3 3 3 2 2 1 3 1 1 2 2 3
3 6 5 5 4 6 8 9 8 9 10 10 11 13 15 15 14 12 11 10 9 8 7 6 7 6 5 4 3 4 3 3 3 3 2 1 1 1 1 1 1 1 2 3
3 3 1 3 6 8 9 10 9 9 11 11 12 13 14 15 14 12 10 9 8 7 7 6 6 6 5 4 4 3 3 2 1 1 1 0 1 1 1 1 1 2 3 4
5 3 2 3 6 7 8 9 9 10 11 12 12 13 14 14 13 12 10 9 8 7 6 6 6 6 5 5 4 4 3 2 1 1 1 1 2 1 1 0 2 3 5 4
4 4 3 3 5 5 7 8 9 10 11 12 13 13 13 13 13 11 9 8 8 7 6 5 6 6 5 5 4 3 2 1 1 1 1 2 2 2 2 1 3 6 5 7
Wind_Direction
207 220 225 224 226 245 261 259 241 230 192 196 216 230 241 222 193 196 197 201 162 87 68 57 61 116 140 143 148 153 157 152 153 160 167 167 158 143 120 104 105 106 108 109
213 226 236 236 231 237 259 272 268 240 181 191 222 240 247 242 220 191 164 73 59 48 46 43 45 44 90 145 153 154 156 155 158 155 152 152 142 125 110 106 100 96 98 103
226 227 227 245 245 235 247 259 266 258 216 208 228 243 246 244 232 180 122 72 59 53 44 35 34 37 36 62 150 160 157 154 152 146 142 133 112 108 112 113 99 81 77 73
233 247 243 230 241 239 242 250 264 273 263 243 223 236 228 218 209 178 109 80 64 54 47 39 32 28 25 24 54 125 141 143 145 146 151 151 146 141 126 111 95 77 65 65
222 229 240 242 238 238 246 254 249 254 263 266 251 251 245 216 193 158 104 85 73 62 53 45 36 31 28 31 44 66 98 109 120 127 136 134 124 113 105 99 92 84 71 65
237 227 229 240 241 239 243 258 259 249 251 249 248 252 255 234 174 125 101 87 78 69 60 51 43 39 37 41 47 56 68 69 78 88 94 102 107 108 106 103 100 89 80 73
233 230 219 230 236 228 228 236 235 226 228 241 236 238 230 82 106 115 109 97 84 74 66 56 48 47 48 51 56 63 69 68 69 74 77 85 92 97 99 101 98 96 88 81
221 226 212 208 225 227 218 231 242 247 240 246 231 226 117 99 102 106 106 101 91 81 73 66 59 58 59 60 63 68 72 72 72 74 74 76 81 85 88 88 92 90 89 89
278 235 204 202 212 232 228 226 246 267 282 284 255 116 115 119 119 117 112 104 96 89 82 75 70 68 67 67 68 73 77 77 76 77 79 78 79 84 89 92 92 93 98 102
294 293 213 201 211 225 243 239 240 249 268 279 276 194 171 160 144 130 120 112 105 98 91 85 80 79 76 75 75 75 77 79 79 80 83 88 87 88 90 91 91 94 96 98
291 295 255 211 217 228 224 238 248 259 262 268 275 307 113 157 145 134 124 118 113 106 101 95 93 90 90 87 84 83 82 83 82 82 84 86 88 90 91 93 95 96 97 99
330 309 293 263 252 259 247 241 243 251 263 274 281 34 93 128 130 126 122 117 112 109 104 100 97 95 91 88 86 85 85 86 86 85 84 83 85 86 88 89 88 88 85 79
339 306 290 280 286 307 297 287 280 269 266 273 280 70 80 101 110 116 119 116 113 109 104 98 94 90 88 86 84 83 84 85 87 87 85 82 81 81 81 81 78 74 71 67
301 297 299 297 299 309 304 305 309 299 270 273 291 100 100 103 112 113 112 110 108 103 100 96 91 87 84 82 81 82 82 84 86 85 83 80 76 75 74 72 68 64 63 63
333 301 306 270 226 243 271 289 306 313 308 303 23 95 112 118 115 115 114 112 106 101 98 93 88 84 82 80 77 78 78 77 82 85 83 81 79 76 73 68 61 54 47 49
336 312 312 295 273 264 270 319 342 337 348 13 62 71 95 102 104 113 116 114 108 102 95 89 86 81 79 79 80 80 79 78 80 84 83 80 78 75 72 70 62 53 46 41
326 324 311 299 310 302 4 25 29 38 30 33 51 86 100 96 97 106 113 111 109 106 101 94 89 87 86 87 88 89 88 87 87 86 84 81 77 72 63 63 59 53 49 47
325 325 303 292 298 310 54 24 23 59 53 59 79 87 90 91 84 80 94 108 111 111 112 110 106 100 96 96 97 98 99 96 93 90 85 80 76 73 66 63 56 49 43 39
348 319 307 306 309 83 43 11 353 20 64 67 91 100 106 106 90 71 76 96 106 110 110 107 108 109 107 105 105 104 102 101 100 95 82 67 66 68 64 59 51 42 33 21
257 268 285 309 320 21 34 341 322 345 76 69 98 112 126 129 98 105 111 108 106 106 107 108 108 107 105 107 110 109 109 112 107 98 86 74 68 65 61 50 34 29 4 358
328 306 308 319 329 71 360 348 351 31 72 88 98 104 98 81 102 124 120 110 110 110 112 114 112 109 113 124 129 127 126 119 113 102 92 83 75 87 83 50 13 346 339 347
336 341 359 351 358 39 6 24 49 84 101 99 97 101 102 104 111 118 119 118 118 116 115 114 114 116 126 139 139 130 121 117 112 104 97 89 56 19 72 49 334 323 320 315
18 24 359 34 63 79 59 72 88 102 105 103 106 114 119 120 121 122 121 121 120 120 123 126 126 128 137 140 130 123 127 129 122 119 113 101 82 27 25 332 304 317 334 348
99 81 12 81 105 98 90 88 90 96 105 110 116 123 126 126 128 128 127 127 128 131 134 137 133 123 114 114 114 117 112 106 108 132 136 174 235 241 233 290 337 23 26 17
352 350 4 92 110 100 87 86 91 102 109 114 116 122 126 128 129 129 130 132 133 131 124 118 116 114 113 111 100 94 87 91 76 29 301 269 261 275 271 296 45 42 67 61
36 30 24 67 80 105 102 97 103 110 114 118 121 121 125 127 128 129 128 126 122 119 116 114 109 102 101 102 100 90 68 51 42 4 330 326 321 315 306 96 116 72 104 117